Location: ????????
(54.6123°N, 39.2099°E)
Time: 02:56:57
(UTC+00:00)

DELTA 2 DEB (DPAF) - Pass Details

Date: 19 May 2025
Orbit: 538 x 548 km, 98.4° (Epoch: 15 June)

Event Time Altitude Azimuth Distance (km) Brightness Sun altitude
Rises 19:27:26 0° 17° (NNE) 2,734 8.1 -11.7°
Reaches altitude 10° 19:29:36 10° 21° (NNE) 1,833 7.1 -11.8°
Maximum altitude 19:33:32 64° 104° (ESE) 609 3.8 -12.1°
Enters shadow 19:36:37 16° 184° (S) 1,484 5.5 -12.2°
